This demonstration page uses our WeatherBlox Daily Observations layout. Learn more.

Left ArrowRight Arrow

41.12389, -100.76542

Hourly Observations for September 23, 2021

Temp ( °F °C ) Dew Point ( °F °C ) Humidity (%) Winds ( mph kmh ) Pressure ( in mb ) Visibility ( mi km ) Precip ( " mm )
12:53 am 00:53 Clear 57 13.9 38 3.3 49 49 SE 5 7 30.00 1016 10 16 N/A
1:53 am 01:53 Clear 57 13.9 38 3.3 49 49 SE 7 11 30.00 1016 10 16 N/A
2:53 am 02:53 Clear 56 13.3 38 3.3 51 51 S 5 7 29.98 1015 10 16 N/A
3:53 am 03:53 Clear 53 11.7 38 3.3 57 57 SSE 5 7 29.98 1015 10 16 N/A
4:53 am 04:53 Clear 54 12.2 38 3.3 55 55 SSW 8 13 29.96 1015 10 16 N/A
5:53 am 05:53 Clear 50 10 38 3.3 63 63 VRB 3 6 29.95 1014 10 16 N/A
6:53 am 06:53 Clear 47 8.3 38 3.3 71 71 E 3 6 29.97 1015 10 16 N/A
7:53 am 07:53 Sunny 44 6.7 37 2.8 76 76 E 3 6 30.00 1016 10 16 N/A
8:53 am 08:53 Sunny 52 11.1 41 5 66 66 N N/A 29.99 1016 10 16 N/A
9:53 am 09:53 Sunny 61 16.1 43 6.1 52 52 S 5 7 29.97 1015 10 16 N/A
10:53 am 10:53 Sunny 67 19.4 43 6.1 42 42 VRB 3 6 29.96 1015 10 16 N/A
11:53 am 11:53 Sunny 74 23.3 45 7.2 36 36 WSW 5 7 29.93 1014 10 16 N/A
12:53 pm 12:53 Sunny 82 27.8 45 7.2 27 27 S 9 15 29.88 1012 10 16 N/A
1:53 pm 13:53 Sunny 85 29.4 41 5 21 21 SW 10 17 29.85 1011 10 16 N/A
2:53 pm 14:53 Sunny 87 30.6 39 3.9 18 18 SW 9 15 29.82 1010 10 16 N/A
3:53 pm 15:53 Sunny 89 31.7 38 3.3 16 16 WSW 7 11 29.80 1009 10 16 N/A
4:53 pm 16:53 Sunny 89 31.7 39 3.9 17 17 undefined N/A 29.80 1009 10 16 N/A
5:53 pm 17:53 Sunny 86 30 45 7.2 24 24 SW 3 6 29.82 1010 10 16 N/A
6:53 pm 18:53 Sunny 76 24.4 53 11.7 45 45 SSW 3 6 29.84 1011 10 16 N/A
7:53 pm 19:53 Clear 64 17.8 47 8.3 54 54 WNW 7 11 29.90 1012 10 16 N/A
8:53 pm 20:53 Clear 60 15.6 48 8.9 65 65 NW 6 9 29.91 1013 10 16 N/A
9:53 pm 21:53 Clear 59 15 45 7.2 60 60 WNW 7 11 29.91 1013 10 16 N/A
10:53 pm 22:53 Clear 55 12.8 44 6.7 67 67 NW 6 9 29.92 1013 10 16 N/A
11:53 pm 23:53 Clear 57 13.9 43 6.1 60 60 W 6 9 29.91 1013 10 16 N/A

Powered by AerisWeather